Regional Weather Roundup
Issued by NWS

Home | Current Version | Previous Version | Graphics & Text | Print | Product List | Glossary On
Versions: 1 2 3 4 5 6 7 8 9 10 11 12 13 14 15 16 17 18 19 20 21 22 23 24 25 26 27 28 29 30 31 32 33 34 35 36 37 38 39 40 41 42 43 44 45 46 47 48 49 50
000
ASUS43 KIND 270809
RWRIN

WEATHER ROUNDUP FOR INDIANA
NATIONAL WEATHER SERVICE INDIANAPOLIS IN
400 AM EDT THU APR 27 2017

NOTE: "FAIR" INDICATES FEW OR NO CLOUDS BELOW 12,000 FEET WITH NO
SIGNIFICANT WEATHER AND/OR OBSTRUCTIONS TO VISIBILITY.

* - STATION DOES NOT REPORT WEATHER SUCH AS PRECIPITATION OR FOG.

+ - STATION NOT QUALITY CONTROLLED BY THE NATIONAL WEATHER SERVICE.
    USE DATA WITH CAUTION...ESPECIALLY DEWPOINT AND RELATIVE
    HUMIDITY OBSERVATIONS.

INZ001>003-010>013-019-020-270900-
NORTHWEST INDIANA

CITY           SKY/WX    TMP DP  RH WIND       PRES   REMARKS
GARY /AIRPORT/ RAIN      62  60  92 S9        29.39S
KNOX *+        CLOUDY    61  50  67 S12       29.44S
LA PORTE +     CLOUDY    60  59  97 S9        29.44R
MONTICELLO +   DRIZZLE   60  57  89 S13G25    29.46F
VALPARAISO     LGT RAIN  62  60  93 S14G22    29.43S

$$

LMZ046-743>745-270900-
SOUTHERN LAKE MICHIGAN

STATION/POSITION TIME  TEMP    WIND        PRES    WAVE
                       AIR SEA DIR/SP/G            HT
                 (UTC) (F)     (DEG/KT/KT) (MB)    (FT)
BURNS HARBOR     0740   62     160/  9/ 16  995.9F
MICHIGAN CITY    0740   61     150/ 11/ 13   N/A
5NW MICH CITY    0800   57 49                N/A     1

$$

INZ004-005-014>016-021>024-270900-
NORTH CENTRAL INDIANA

CITY           SKY/WX    TMP DP  RH WIND       PRES   REMARKS
GOSHEN         CLOUDY    63  58  83 S9        29.43F
LOGANSPORT +   CLOUDY    59  55  88 SW14G20   29.49S
PERU/GRISSOM   CLOUDY    61  61 100 SW17      29.48R
ROCHESTER +    RAIN      63  61  94 SW12G22   29.50R
SOUTH BEND     CLOUDY    60  60 100 S7        29.45R
WARSAW +       CLOUDY    63  59  88 SW5       29.46R

$$

INZ006>009-017-018-025>027-270900-
NORTHEAST INDIANA

CITY           SKY/WX    TMP DP  RH WIND       PRES   REMARKS
AUBURN +       CLOUDY    64  54  68 S5        29.46F
FORT WAYNE     CLOUDY    68  56  65 S16       29.46F
HUNTINGTON +   CLOUDY    66  57  72 SW10G16   29.48R

$$

INZ028-029-035-036-043>045-051>053-270900-
WEST CENTRAL INDIANA

CITY           SKY/WX    TMP DP  RH WIND       PRES   REMARKS
LAFAYETTE      CLOUDY    59  57  93 S8        29.44F
TERRE HAUTE    CLOUDY    59  56  89 SE12      29.43F

$$

INZ030>032-037>040-046>048-054>057-064-065-270900-
CENTRAL INDIANA

CITY           SKY/WX    TMP DP  RH WIND       PRES   REMARKS
CP ATTERBURY + CLOUDY    61  55  82 SW12      29.59R
FISHERS *+     CLOUDY    59  59 100 SW6       29.53
FRANKFORT +    DRIZZLE   62  58  86 SW10G20   29.51F
GREENWOOD *+   CLOUDY    61  56  84 SW8       29.56S
INDIANAPOLIS   LGT RAIN  60  57  89 S12       29.54S
-EAGLE CREEK   CLOUDY    61  57  87 S7        29.53F
KOKOMO +       CLOUDY    61  57  87 SW14G22   29.51R
MARION +       LGT RAIN  61  57  88 W18G32    29.53R
MT COMFORT *+  CLOUDY    61  57  88 SW10      29.55F
SHELBYVILLE    CLOUDY    64  55  72 SW13      29.55R
ZIONSVILLE +   CLOUDY    58  56  91 SW9       29.52F

$$

INZ033-034-041-042-049-050-058-059-270900-
EAST CENTRAL INDIANA

CITY           SKY/WX    TMP DP  RH WIND       PRES   REMARKS
MUNCIE         CLOUDY    65  54  67 W21G41    29.53R
RICHMOND +     CLOUDY    64  54  68 S17       29.55F

$$

INZ060-061-067>069-081>083-085>088-270900-
SOUTHWEST INDIANA

CITY           SKY/WX    TMP DP  RH WIND       PRES   REMARKS
EVANSVILLE     CLOUDY    61  57  87 S12       29.50R
HUNTINGBURG *+ CLOUDY    59  57  93 SE10      29.53F
WASHINGTON +   CLOUDY    60  56  87 S14       29.47F

$$

INZ062-063-066-070>080-084-089>092-270900-
SOUTH CENTRAL AND SOUTHEAST INDIANA

CITY           SKY/WX    TMP DP  RH WIND       PRES   REMARKS
BEDFORD +      LGT RAIN  59  55  88 E8        29.50F
BLOOMINGTON    RAIN      59  55  87 SE7       29.50F
MADISON *+     CLOUDY    64  52  63 W10G17    29.63R
NORTH VERNON + CLOUDY    63  52  67 SW10G20   29.60R
SEYMOUR +      CLOUDY    64  54  68 W13       29.58R

$$





USA.gov is the U.S. government's official web portal to all federal, state and local government web resources and services.